Location: Korczew
(51.3586°N, 19.4491°E)
Time: 08:45:59
(UTC+00:00)

SL-16 R/B - Pass Details

Date: 19 May 2025
Orbit: 841 x 844 km, 71.0° (Epoch: 16 June)

Event Time Altitude Azimuth Distance (km) Brightness Sun altitude
Rises 20:57:20 0° 331° (NNW) 3,415 7.2 -15.3°
Reaches altitude 10° 20:59:53 10° 336° (NNW) 2,477 6.0 -15.5°
Maximum altitude 21:05:24 49° 52° (NE) 1,078 2.8 -15.8°
Enters shadow 21:09:27 18° 121° (ESE) 1,963 3.6 -16.0°
